TimeCDT,TemperatureF,Dew PointF,Humidity,Sea Level PressureIn,VisibilityMPH,Wind Direction,Wind SpeedMPH,Gust SpeedMPH,PrecipitationIn,Events,Conditions,WindDirDegrees,DateUTC
12:01 AM,55.4,50.0,82,30.12,10.0,North,-9999.0,-,N/A,,Mostly Cloudy,0,2012-10-06 05:01:00
12:32 AM,55.4,50.0,82,30.12,10.0,NE,10.4,-,N/A,,Overcast,40,2012-10-06 05:32:00
12:52 AM,55.9,50.0,80,30.09,10.0,NE,8.1,-,N/A,,Overcast,40,2012-10-06 05:52:00
1:52 AM,55.0,48.9,80,30.09,10.0,NNE,10.4,17.3,N/A,,Overcast,30,2012-10-06 06:52:00
2:52 AM,54.0,48.0,80,30.10,10.0,NNE,11.5,-,N/A,,Overcast,20,2012-10-06 07:52:00
3:52 AM,53.1,46.9,80,30.09,10.0,NNE,8.1,-,N/A,,Overcast,30,2012-10-06 08:52:00
4:52 AM,52.0,46.0,80,30.09,10.0,NNE,8.1,-,N/A,,Overcast,20,2012-10-06 09:52:00
5:52 AM,51.1,45.0,80,30.11,10.0,NNE,10.4,-,N/A,,Overcast,30,2012-10-06 10:52:00
6:19 AM,50.0,44.6,82,30.15,10.0,NNE,10.4,18.4,N/A,,Overcast,20,2012-10-06 11:19:00
6:40 AM,50.0,44.6,82,30.16,10.0,NNE,12.7,17.3,N/A,,Overcast,20,2012-10-06 11:40:00
6:49 AM,48.2,44.6,87,30.16,8.0,North,10.4,-,N/A,,Overcast,10,2012-10-06 11:49:00
6:52 AM,48.9,45.0,86,30.12,8.0,NNE,11.5,-,N/A,,Overcast,20,2012-10-06 11:52:00
7:52 AM,48.9,44.1,83,30.13,10.0,North,11.5,-,N/A,,Overcast,10,2012-10-06 12:52:00
8:39 AM,48.2,42.8,82,30.17,10.0,NNE,10.4,-,N/A,,Overcast,20,2012-10-06 13:39:00
8:52 AM,48.9,42.1,77,30.15,10.0,North,12.7,-,N/A,,Overcast,10,2012-10-06 13:52:00
9:52 AM,48.0,41.0,77,30.18,10.0,North,11.5,19.6,N/A,,Overcast,360,2012-10-06 14:52:00
10:52 AM,48.9,39.0,69,30.19,10.0,NNE,12.7,-,N/A,,Overcast,20,2012-10-06 15:52:00
11:52 AM,51.1,37.9,61,30.18,10.0,North,11.5,-,N/A,,Overcast,360,2012-10-06 16:52:00
12:52 PM,51.1,37.9,61,30.17,10.0,North,12.7,-,N/A,,Overcast,10,2012-10-06 17:52:00
1:52 PM,51.1,39.0,63,30.15,10.0,North,9.2,-,N/A,,Overcast,10,2012-10-06 18:52:00
2:06 PM,51.8,39.2,62,30.16,10.0,NNE,8.1,-,N/A,,Overcast,20,2012-10-06 19:06:00
2:43 PM,53.6,39.2,58,30.16,10.0,NNE,10.4,-,N/A,,Overcast,20,2012-10-06 19:43:00
2:52 PM,53.1,39.0,59,30.13,10.0,North,8.1,-,N/A,,Overcast,10,2012-10-06 19:52:00
3:52 PM,54.0,39.0,57,30.13,10.0,North,12.7,-,N/A,,Overcast,10,2012-10-06 20:52:00
3:59 PM,53.6,39.2,58,30.15,10.0,North,11.5,-,N/A,,Overcast,10,2012-10-06 20:59:00
4:52 PM,53.1,37.9,57,30.13,10.0,North,16.1,-,N/A,,Overcast,10,2012-10-06 21:52:00
5:52 PM,51.1,37.9,61,30.14,10.0,North,12.7,-,N/A,,Overcast,10,2012-10-06 22:52:00
6:52 PM,48.0,37.9,68,30.16,10.0,NNE,9.2,18.4,N/A,,Overcast,30,2012-10-06 23:52:00
7:09 PM,48.2,37.4,66,30.18,10.0,NNE,11.5,-,N/A,,Overcast,20,2012-10-07 00:09:00
7:52 PM,46.9,37.9,71,30.19,10.0,NNE,13.8,-,N/A,,Overcast,20,2012-10-07 00:52:00
8:52 PM,46.0,39.0,76,30.22,10.0,NNE,16.1,21.9,N/A,,Overcast,20,2012-10-07 01:52:00
9:00 PM,44.6,39.2,81,30.23,10.0,NNE,15.0,23.0,N/A,,Overcast,20,2012-10-07 02:00:00
9:35 PM,44.6,37.4,76,30.25,10.0,NNE,11.5,21.9,N/A,,Overcast,30,2012-10-07 02:35:00
9:52 PM,45.0,37.0,74,30.25,10.0,NNE,12.7,19.6,N/A,,Overcast,30,2012-10-07 02:52:00
10:52 PM,45.0,36.0,71,30.26,10.0,NNE,12.7,18.4,N/A,,Overcast,30,2012-10-07 03:52:00
11:52 PM,45.0,35.1,68,30.26,10.0,NE,11.5,21.9,N/A,,Overcast,50,2012-10-07 04:52:00